Weather History for Logrono, Spain

Change the Weather History Date:

Saturday, November 16, 2013

  Actual Average Record
Temperature  
Mean Temperature 40 °F -  
Max Temperature 46 °F - - ()
Min Temperature 33 °F - - ()
Degree Days  
Heating Degree Days 26    
Moisture  
Dew Point 36 °F    
Average Humidity 79    
Maximum Humidity 100    
Minimum Humidity 51    
Precipitation  
Precipitation 0.01 in - - ()
Sea Level Pressure  
Sea Level Pressure 30.18 in    
Wind  
Wind Speed 8 mph ()    
Max Wind Speed 16 mph    
Max Gust Speed -    
Visibility 6.5 miles    
Events      
T = Trace of Precipitation, MM = Missing Value Source: Averaged Metar Reports

Daily Weather History Graph

Daily Weather History Graph

Search for Another Location

Airport:

Trip Planner

Search our weather history database for the weather conditions in past years. The results will help you decide how hot, cold, wet, or windy it might be!

Date:

Astronomy

Nov. 16, 2013 Rise Set
Actual Time 8:01 AM CET 5:46 PM CET
Civil Twilight 7:31 AM CET 6:16 PM CET
Nautical Twilight 6:57 AM CET 6:50 PM CET
Astronomical Twilight 6:23 AM CET 7:23 PM CET
Moon 5:12 PM CET (11/16) 6:42 AM CET (11/16)
Length of Visible Light 10h 45m
Length of Day
9h 44m
Waxing Gibbous, 99% of the Moon is Illuminated
Nov 16
Waxing Gibbous
Nov 17
Full
Nov 25
Last Quarter
Dec 3
New
Dec 9
First Quarter

Hourly Weather History & Observations

Time (CET) Temp. Windchill Dew Point Humidity Pressure Visibility Wind Dir Wind Speed Gust Speed Precip Events Conditions
12:00 AM 37 °F - 33 °F 81% 30.20 in - West 8.1 mph - -   Unknown Precipitation
12:00 AM 37.4 °F 29.3 °F 37.4 °F 100% 30.15 in 6.2 mi West 12.7 mph - N/A   Partly Cloudy
1:00 AM 38 °F - 34 °F 78% 30.18 in 9 mi West 8.1 mph - -   Overcast
1:00 AM 37.4 °F 29.8 °F 37.4 °F 100% 30.12 in 6.2 mi West 11.5 mph - N/A   Partly Cloudy
2:00 AM 38 °F - 33 °F 77% 30.19 in - West 4.6 mph - -  
2:00 AM 37.4 °F 32.1 °F 35.6 °F 93% 30.12 in 6.2 mi West 6.9 mph - N/A   Partly Cloudy
3:00 AM 36 °F - 33 °F 82% 30.21 in - WSW 3.5 mph - -  
3:00 AM 35.6 °F 30.7 °F 35.6 °F 100% 30.15 in 6.2 mi West 5.8 mph - N/A   Partly Cloudy
4:00 AM 35.6 °F - 33.8 °F 93% 30.15 in 6.2 mi Variable 2.3 mph - N/A   Partly Cloudy
5:00 AM 34 °F - 31 °F 86% 30.23 in - WSW 2.3 mph - -  
5:00 AM 33.8 °F 29.6 °F 33.8 °F 100% 30.15 in - WSW 4.6 mph - N/A   Clear
6:00 AM 34 °F - 31 °F 84% 30.25 in - West 1.2 mph - -  
6:00 AM 33.8 °F - 33.8 °F 100% 30.18 in - Calm Calm - N/A   Clear
7:00 AM 35 °F - 32 °F 84% 30.24 in 9 mi West 3.5 mph - -  
7:00 AM 33.8 °F 27.7 °F 33.8 °F 100% 30.18 in - West 6.9 mph - N/A   Clear
8:00 AM 35 °F - 31 °F 82% 30.28 in - WSW 5.8 mph - -  
8:00 AM 35.6 °F 29.2 °F 33.8 °F 93% 30.21 in - WSW 8.1 mph - N/A   Clear
9:00 AM 35 °F - 32 °F 85% 30.27 in - WSW 8.1 mph - -  
9:00 AM 35.6 °F 27.5 °F 35.6 °F 100% 30.21 in - West 11.5 mph - N/A   Clear
10:00 AM 41.0 °F 33.1 °F 37.4 °F 87% 30.18 in - West 15.0 mph - N/A   Clear
11:00 AM 41 °F - 34 °F 66% 30.23 in - West 11.5 mph - -  
11:00 AM 41.0 °F 33.5 °F 37.4 °F 87% 30.18 in - West 13.8 mph - N/A   Clear
12:00 PM 41 °F - 33 °F 66% 30.21 in - WSW 11.5 mph - -  
12:00 PM 42.8 °F 35.1 °F 37.4 °F 81% 30.15 in 6.2 mi West 16.1 mph - N/A   Partly Cloudy
1:00 PM 43 °F - 35 °F 63% 30.21 in 22 mi West 10.4 mph - -   Scattered Clouds
1:00 PM 44.6 °F 38.1 °F 39.2 °F 81% 30.18 in 6.2 mi West 13.8 mph - N/A   Scattered Clouds
2:00 PM 45 °F - 33 °F 52% 30.19 in - West 10.4 mph - -  
2:00 PM 46.4 °F 40.4 °F 37.4 °F 71% 30.15 in 6.2 mi West 13.8 mph - N/A   Partly Cloudy
3:00 PM 45 °F - 33 °F 51% 30.17 in - West 9.2 mph - -  
3:00 PM 46.4 °F 40.1 °F 35.6 °F 66% 30.12 in 6.2 mi West 15.0 mph - N/A   Scattered Clouds
4:00 PM 46.4 °F 40.7 °F 37.4 °F 71% 30.15 in 6.2 mi West 12.7 mph - N/A   Scattered Clouds
5:00 PM 45 °F - 35 °F 57% 30.18 in - WSW 8.1 mph - -  
5:00 PM 46.4 °F 41.9 °F 39.2 °F 76% 30.15 in 6.2 mi WSW 9.2 mph - N/A   Scattered Clouds
6:00 PM 45 °F - 36 °F 62% 30.19 in - SW 5.8 mph - -  
6:00 PM 46.4 °F 42.4 °F 41.0 °F 81% 30.15 in 6.2 mi SW 8.1 mph - N/A   Mostly Cloudy
7:00 PM 45 °F - 36 °F 62% 30.20 in 22 mi WSW 6.9 mph - -   Overcast
7:00 PM 46.4 °F 42.9 °F 41.0 °F 81% 30.15 in 6.2 mi WSW 6.9 mph - N/A   Overcast
8:00 PM 45 °F - 37 °F 64% 30.19 in - WSW 8.1 mph - -  
8:00 PM 46.4 °F 41.5 °F 41.0 °F 81% 30.15 in 6.2 mi West 10.4 mph - N/A   Overcast
9:00 PM 45 °F - 37 °F 66% 30.19 in - WSW 8.1 mph - -  
9:00 PM 46.4 °F 41.5 °F 41.0 °F 81% 30.15 in 6.2 mi West 10.4 mph - N/A   Overcast
10:00 PM 46.4 °F 41.9 °F 41.0 °F 81% 30.15 in 6.2 mi West 9.2 mph - N/A   Overcast
11:00 PM 46 °F - 38 °F 63% 30.17 in - WSW 8.1 mph - -  
11:00 PM 46.4 °F 41.5 °F 41.0 °F 81% 30.15 in 6.2 mi West 10.4 mph - N/A   Mostly Cloudy